This demonstration page uses our WeatherBlox Daily Observations layout. Learn more.

Left ArrowRight Arrow

Hourly Observations for June 16, 2017

Temp ( °F °C ) Dew Point ( °F °C ) Humidity (%) Winds ( mph kmh ) Pressure ( in mb ) Visibility ( mi km ) Precip ( " mm )
12:53 am 00:53 Clear 68 20 68 20 100 100 WNW 3 6 29.89 1012 10 16 0.00 0.00
1:53 am 01:53 Mostly Clear 68 20 67 19.4 96 96 Calm 29.89 1012 10 16 0.00 0.00
2:06 am 02:06 Mostly Cloudy 69 20.6 67 19.4 93 93 Calm 29.91 1013 10 16 0.00 0.00
2:17 am 02:17 Mostly Cloudy 69 20.6 68 20 96 96 Calm 29.88 1012 10 16 0.00 0.00
2:43 am 02:43 Partly Cloudy 68 20 67 19.4 96 96 Calm 29.88 1012 10 16 0.00 0.00
2:53 am 02:53 Partly Cloudy 68 20 67 19.4 96 96 WNW 3 6 29.88 1012 10 16 0.00 0.00
3:38 am 03:38 Mostly Clear 68 20 67 19.4 96 96 WNW 3 6 29.88 1012 10 16 0.00 0.00
3:53 am 03:53 Mostly Clear 68 20 67 19.4 96 96 WNW 7 11 29.88 1012 10 16 0.00 0.00
4:45 am 04:45 Mostly Cloudy 68 20 67 19.4 96 96 WSW 5 7 29.94 1014 10 16 0.00 0.00
4:53 am 04:53 Cloudy 68 20 67 19.4 96 96 SW 5 7 29.90 1013 10 16 0.00 0.00
5:30 am 05:30 Mostly Clear 68 20 67 19.4 96 96 W 3 6 29.94 1014 10 16 0.00 0.00
5:53 am 05:53 Mostly Clear 68 20 67 19.4 96 96 W 6 9 29.90 1013 10 16 0.00 0.00
6:53 am 06:53 Sunny 68 20 67 19.4 96 96 N 3 6 29.93 1014 10 16 0.00 0.00
7:29 am 07:29 Mostly Cloudy 68 20 67 19.4 96 96 VRB 3 6 29.97 1015 10 16 0.00 0.00
7:53 am 07:53 Mostly Cloudy 68 20 67 19.4 96 96 NNW 5 7 29.93 1014 10 16 0.00 0.00
8:35 am 08:35 Mostly Sunny 69 20.6 67 19.4 93 93 NNW 3 6 29.94 1014 10 16 0.00 0.00
8:53 am 08:53 Sunny 69 20.6 67 19.4 93 93 NNW 5 7 29.93 1014 10 16 0.00 0.00
9:53 am 09:53 Sunny 72 22.2 67 19.4 84 84 NW 5 7 29.92 1013 10 16 0.00 0.00
10:53 am 10:53 Mostly Cloudy 75 23.9 68 20 79 79 N 3 6 29.93 1014 10 16 0.00 0.00
11:53 am 11:53 Sunny 76 24.4 67 19.4 74 74 VRB 5 7 29.93 1014 10 16 0.00 0.00
12:53 pm 12:53 Sunny 77 25 67 19.4 71 71 W 6 9 29.91 1013 10 16 0.00 0.00
1:53 pm 13:53 Sunny 79 26.1 68 20 69 69 VRB 3 6 29.89 1012 10 16 0.00 0.00
2:53 pm 14:53 Sunny 82 27.8 69 20.6 65 65 VRB 5 7 29.87 1012 10 16 0.00 0.00
3:53 pm 15:53 Sunny 85 29.4 67 19.4 55 55 WNW 6 9 29.85 1011 10 16 0.00 0.00
4:53 pm 16:53 Sunny 85 29.4 67 19.4 55 55 W 9 15 29.83 1010 10 16 0.00 0.00
5:53 pm 17:53 Mostly Cloudy 87 30.6 69 20.6 55 55 NW 8 13 29.82 1010 10 16 0.00 0.00
6:53 pm 18:53 Sunny 86 30 67 19.4 53 53 VRB 6 9 29.81 1009 10 16 0.00 0.00
7:53 pm 19:53 Sunny 85 29.4 67 19.4 55 55 NW 7 11 29.81 1010 10 16 0.00 0.00
8:53 pm 20:53 Mostly Clear 81 27.2 69 20.6 67 67 N 3 6 29.82 1010 10 16 0.00 0.00
9:53 pm 21:53 Clear 78 25.6 70 21.1 76 76 Calm 29.84 1011 10 16 0.00 0.00
10:53 pm 22:53 Mostly Cloudy 78 25.6 69 20.6 74 74 SW 3 6 29.85 1011 10 16 0.00 0.00
11:53 pm 23:53 Clear 75 23.9 68 20 79 79 WSW 3 6 29.86 1011 10 16 0.00 0.00

Powered by AerisWeather